www.pogodaiklimat.ru

Погода и климат >> Архив погоды >> Россия >> Нижегородская область >> Арзамас


ПОГОДА в Арзамасе

АРХИВ ПОГОДЫ в Арзамасе

Время (UTC), дата Ветер
(напр.,м/с)
 
Видим.   Явления Облачность Т
(С)
Тd
(С)
f
(%)
Тe
(С)
Тes
(С)
Комфортность P
(гПа)
Po
(гПа)
Тmin
(С)
Tmax
(С)
R
(мм)
R24
(мм)
S
(см)
03 18.08 В 2-3
{8}
20 км 10/0
[Ac cast]
+18.8 +16.8 88 +21 +21 комфорт 1010.4 996.1 +18.5 3
06 18.08 ЮВ 3-5
{5}
20 км 4/0
[Ci fib]
+22.5 +16.1 67 +27 +32 душно 1010.3 996.3
09 18.08 Ю 3-6
{6}
20 км 10/0
[Cs]
+25.7 +16.1 55 +29 +37 душно 1010.7 996.6
12 18.08 ЮЗ 3-6
{7}
20 км 10/6 600 м
[Cu med, cong Cs]
+27.1 +15.7 50 +30 +32 душно 1011.8 997.8
15 18.08 ЮЗ 2-3
{8}
20 км 10/0
[Ac trans Ci sp]
+26.4 +17.5 58 +31 +31 душно 1012.6 998.5 +27.8
18 18.08 СВ 1-1
{3}
20 км 8/3 600 м
[Sc Cs]
+19.8 +17.7 88 +24 +24 комфорт 1014.1 999.7
21 18.08 ЮВ 1-1
{3}
4000 м 10/10 600 м
[Sc]
+19.4 +18.0 92 +23 +23 комфорт 1014.2 999.8
00 19.08 В 2-3
{5}
4000 м в посл. час гроза {дождь} 10/0 300 м
[As op]
+19.4 +18.1 92 +22 +22 комфорт 1014.5 1000.1
03 19.08 ЮВ 2-3
{4}
20 км {дождь} 10/5 300 м
[Sc Ac trans]
+18.8 +16.9 89 +21 +21 комфорт 1015.3 1000.8 +19.0 2
06 19.08 Ю 2-4
{5}
20 км {дождь} 10/10 300 м
[St]
+19.9 +17.6 87 +23 +23 комфорт 1016.2 1001.8
09 19.08 ЮЗ 3-5
{6}
20 км 8/8 600 м
[Cu hum]
+24.0 +16.4 62 +27 +29 жарко 1016.8 1002.5
12 19.08 З 4-7
{9}
20 км 8/8 600 м
[Cu med, cong]
+24.9 +15.9 57 +28 +29 жарко 1016.8 1002.5
15 19.08 З 2-4
{7}
20 км 8/0
[Ac trans]
+21.7 +15.1 66 +25 +25 комфорт 1018.4 1004.0 +25.2
18 19.08 ЮЗ 1-2
{5}
4000 м ясно +16.2 +14.1 87 +17 +17 тепло 1019.7 1005.0
21 19.08 штиль 0
{2}
4000 м дымка ясно +12.4 +11.2 92 +12 +12 по сезону 1020.7 1005.8
00 20.08 штиль 0
{1}
1000 м дымка ясно +10.6 +10.0 96 +10 +10 по сезону 1021.2 1006.2
03 20.08 штиль 0
{1}
200 м туман ?/? +13.2 +12.8 97 +13 +13 по сезону 1022.2 1007.3 +10.3
06 20.08 З 1-2
{2}
500 м туман ?/? +16.0 +15.3 96 +17 +17 тепло 1022.8 1008.0
09 20.08 СЗ 2-4
{4}
20 км {туман} 4/4 300 м
[Sc]
+23.7 +15.4 60 +27 +34 жарко 1022.1 1007.7
12 20.08 СЗ 2-4
{5}
20 км 8/8 300 м
[Sc]
+25.4 +13.9 49 +28 +29 жарко 1021.6 1007.3
15 20.08 СЗ 1-2
{4}
20 км 4/4 300 м
[Sc]
+24.4 +15.1 56 +27 +28 жарко 1021.6 1007.3 +25.4
18 20.08 штиль 0
{2}
4000 м местами туман поземный 4/3 300 м
[Sc Ac trans]
+15.9 +14.3 90 +16 +16 по сезону 1022.9 1008.1
21 20.08 штиль 0
{1}
4000 м местами туман поземный 3/0
[Ac trans]
+13.3 +12.4 94 +13 +13 по сезону 1023.7 1008.7
00 21.08 штиль 0
{1}
4000 м туман поземный ясно +11.6 +10.9 95 +11 +11 по сезону 1023.9 1008.9
03 21.08 штиль 0
{1}
500 м туман ?/? +12.2 +11.7 97 +12 +12 по сезону 1024.7 1009.7 +10.6
06 21.08 З 1-2
{2}
20 км {туман} ясно +22.4 +16.4 69 +27 +34 душно 1024.3 1009.8
09 21.08 З 2-3
{4}
20 км 9/3 600 м
[Cu hum Cs]
+26.1 +17.1 58 +30 +37 душно 1023.7 1009.4
12 21.08 СЗ 2-3
{4}
20 км 8/5 600 м
[Cu med, cong Ci]
+27.6 +17.5 54 +32 +35 очень
душно
1023.0 1008.8
15 21.08 СЗ 1-3
{5}
20 км 9/3 600 м
[Sc diur, vesp Ci]
+26.2 +17.3 58 +30 +31 душно 1022.9 1008.6 +28.3
18 21.08 СВ 2-4
{5}
4000 м 4/0
[Ci fib]
+22.2 +18.6 80 +27 +27 душно 1023.3 1008.8
21 21.08 СВ 1-2
{5}
4000 м ясно +17.0 +15.9 93 +18 +18 тепло 1023.6 1008.9
00 22.08 штиль 0
{1}
4000 м дымка 3/0
[Ci fib]
+13.8 +13.0 95 +13 +13 по сезону 1023.5 1008.6
03 22.08 штиль 0
{2}
20 км ясно +14.7 +14.0 96 +14 +15 по сезону 1023.5 1008.6 +13.3
06 22.08 Ю 2-2
{3}
20 км ясно +23.2 +19.0 77 +29 +36 душно 1022.3 1007.9
09 22.08 З 2-5
{6}
20 км 9/9 300 м
[Cu med, cong]
+26.8 +17.6 57 +31 +32 душно 1020.8 1006.7
12 22.08 З 4-6
{6}
20 км 8/8 300 м
[Cu med, cong]
+28.4 +16.8 49 +32 +33 душно 1019.8 1005.7
15 22.08 ЮЗ 3-7
{8}
20 км ясно +27.4 +15.9 49 +30 +31 жарко 1018.7 1004.6 +29.0
18 22.08 СЗ 3-7
{7}
4000 м 8/8 300 м
[Sc]
+21.0 +17.3 79 +25 +25 комфорт 1020.3 1005.8
21 22.08 С 4-7
{10}
4000 м 8/8 300 м
[Sc]
+17.5 +14.2 81 +17 +17 тепло 1023.0 1008.3
00 23.08 СЗ 1-2
{8}
4000 м {дождь, морось} 10/10 600 м
[Sc]
+15.4 +13.6 89 +16 +16 тепло 1024.5 1009.7
03 23.08 СЗ 1-2
{3}
20 км 6/0
[Ci sp]
+13.4 +12.3 93 +14 +14 по сезону 1026.0 1011.0 +12.5 2
06 23.08 С 2-4
{5}
20 км 3/0
[Ci fib]
+18.1 +12.9 72 +19 +25 тепло 1028.7 1012.0
09 23.08 СЗ 4-9
{9}
20 км 4/1 600 м
[Cu hum Ci fib]
+20.9 +10.5 51 +23 +29 комфорт 1027.3 1012.7
12 23.08 С 3-6
{9}
20 км 8/5 300 м
[Sc diur, vesp Cs]
+21.9 +9.0 44 +23 +26 комфорт 1026.8 1012.3
15 23.08 С 2-3
{7}
20 км 6/0
[Cs]
+20.9 +9.5 48 +23 +24 комфорт 1026.5 1011.9 +22.1
18 23.08 СВ 1-1
{3}
4000 м 6/0
[Ac lent Cs]
+12.9 +11.2 89 +13 +13 по сезону 1027.1 1012.1
21 23.08 штиль 0
{1}
4000 м местами туман поземный ясно +9.1 +7.8 92 +8 +8 холодно 1027.5 1012.3
00 24.08 штиль 0
{1}
4000 м местами туман поземный ясно +6.5 +5.7 95 +5 +5 холодно 1027.8 1012.3
03 24.08 штиль 0
{1}
20 км туман поземный ясно +6.8 +5.9 94 +6 +6 холодно 1027.6 1012.3 +5.6
06 24.08 Ю 1-1
{2}
20 км 4/0
[Ci fib]
+17.5 +12.5 72 +19 +25 тепло 1026.7 1012.0
09 24.08 ЮЗ 2-4
{5}
20 км 8/6 600 м
[Cu med, cong Ci]
+22.1 +9.8 46 +24 +28 комфорт 1025.0 1010.5
12 24.08 З 4-7
{8}
20 км 9/0
[Ci]
+22.8 +9.0 41 +24 +28 комфорт 1022.6 1008.1
15 24.08 З 3-5
{8}
20 км 4/1 600 м
[Cu hum Ci fib]
+21.7 +10.9 50 +24 +24 комфорт 1021.3 1006.9 +23.3
18 24.08 ЮЗ 2-3
{5}
4000 м 3/0
[Ci fib]
+14.9 +11.3 79 +15 +15 по сезону 1021.2 1006.4
21 24.08 штиль 0
{3}
4000 м 10/0
[As op]
+13.6 +11.8 89 +13 +13 по сезону 1020.2 1005.4
00 25.08 штиль 0
{2}
4000 м 8/0
[As trans]
+12.6 +11.3 92 +12 +12 по сезону 1020.1 1005.2

 

Местоположение метеостанции Арзамас (Нижегородская область, Россия): широта 55.37 долгота 43.78 высота над уровнем моря 124 м.

В архиве по умолчанию представлена погода в Арзамасе за последнюю неделю. Архивные данные за месяц целиком и за предыдущие месяцы, начиная с января 2011 года, Вы можете получить, выбрав интересующий диапазон дат из раскрывающегося списка и нажав кнопку "Ввод!".


*Определитесь, кто Вы:
робот инопланетянин человек

Внимание! Время в таблицах - всемирное. Для получения местного времени необходимо прибавить поправку, которая равна 3 ч.

Смотрите также архив погоды в соседних городах и на ближайших метеорологических станциях:

Погода в Дальнем Константиново (Нижегородская область, Россия) (51 км)
Погода в Лукоянове (Нижегородская область, Россия) (59 км)
Погода в Павлово (Нижегородская область, Россия) (80 км)
Погода в Темникове (Мордовия, Россия) (89 км)
Погода в Нижнем Новгороде аэропорт (Нижегородская область, Россия) (95 км)
Погода в Нижнем Новгороде (Нижегородская область, Россия) (101 км)
Погода в Краснослободске (Мордовия, Россия) (105 км)
Погода в Выксе (Нижегородская область, Россия) (105 км)
Погода в Большом Болдино (Нижегородская область, Россия) (105 км)
Погода в Лысково (Нижегородская область, Россия) (106 км)

Пояснения к столбцам:

Ветер - указаны скорость ветра в м/с - средняя за 10 мин, порывы в срок и между сроками (в фигурных скобках) и направление, откуда дует ветер: С - северный, СВ - северо-восточный, В - восточный, ЮВ - юго-восточный, Ю - южный, ЮЗ - юго-западный, З - западный, СЗ - северо-западный.
Видимость - горизонтальная дальность видимости в метрах или километрах. При видимости от 1 до 10 км при отсутствии осадков обычно наблюдается дымка, при ухудшении видимости до 1 км и менее - туман. В сухую погоду видимость может ухудшаться дымом, пылью или мглою.
Явления - указаны атмосферные явления, наблюдавшиеся в срок или в последний час перед сроком; фигурными скобками обозначены явления, наблюдавшиеся между сроками (за 1-3 часа до срока); квадратными скобками обозначены град или гололедные отложения с указанием их диаметра в мм.
Облачность - указаны через наклонную черту общая и нижняя облачность в баллах и высота нижней границы облаков в метрах; квадратными скобками обозначены формы облаков: Ci - перистые, Cs - перисто-слоистые, Cc - перисто-кучевые, Ac - высококучевые, As - высокослоистые, Sc - слоисто-кучевые, Ns - слоисто-дождевые, Cu - кучевые, Cb - кучево-дождевые. Подробнее классификацию облаков см. в Атласе облаков (PDF).
T - Температура воздуха - температура, измеренная на высоте 2 м над землей.
Td - Температура точки росы - температура, при понижении до которой содержащийся в воздухе водяной пар достигнет насыщения.
f - Относительная влажность воздуха - влажноcть воздуха, измеренная на высоте 2 м над землей.
Te - Эффективная температура - температура, которую ощущает одетый по сезону человек в тени. Характеристика душности погоды. При расчете учитывается влияние влажности воздуха и скорости ветра на теплоощущения человека.
Tes - Эффективная температура на солнце - температура, которую ощущает человек, с поправкой на солнечный нагрев. Характеристика знойности погоды. Зависит от высоты солнца над горизонтом, облачности и скорости ветра. Ночью, в пасмурную погоду, а также при ветре 12 м/с и более поправка равна нулю.
P - Атмосферное давление - приведенное к уровню моря атмосферное давление.
Po - Атмосферное давление - измеренное на уровне метеостанции атмосферное давление.
Tmin - Минимальная температура - минимум температуры воздуха на высоте 2 м над землей.
Tmax - Максимальная температура - максимум температуры воздуха на высоте 2 м над землей.
R - Количество осадков - Количество выпавших осадков за период времени, мм. При наведении курсора мыши на число - период времени, за который выпало указанное количество осадков.
R24 - Количество осадков - Количество выпавших осадков за 24 часа, мм.
S - Снежный покров - Высота снежного покрова, см. При наведении курсора мыши на число - состояние снежного покрова и степень покрытия местности в баллах.